< < Back
Terminal Aerodrome Forecast


Current Version              Previous Versions:   1  2  3  4  5  6  7  8  9  

Terminal Aerodrome Forecast

343
FTUS42 KCAE 050245 AAA
TAFCAE
TAF AMD
KCAE 050245Z 0503/0524 23007KT P6SM BKN150
     FM050400 VRB05KT P6SM BKN150
     FM051300 20008KT P6SM SCT040 BKN120
     FM051600 22011G16KT P6SM VCSH SCT040 BKN120=

Latest METAR

777
SAUS80 KWBC 060600
MTRCAE
METAR KCAE 060556Z 15003KT 6SM BR SCT008 22/21 A3010 RMK AO2 SLP188
60000 T02220206 10250 20222 55001


USA.gov is the U.S. government's official web portal to all federal, state and local government web resources and services.